Hourly Data Report for December 12, 2017

All times are specified in Local Standard Time (LST). Add 1 hour to adjust for Daylight Saving Time where and when it is observed.

LUNENBURG
NOVA SCOTIA

44°21'36.094" N
64°17'46.082" W
3.80 m
8203210
XLB

Related Data

No related data is available for this station

Download Data

Hourly Data (December 2017)
Hourly Data Report for December 12, 2017
Temp Definition
°C
Dew Point Temp Definition
°C
Rel Hum Definition
%
Wind Dir Definition
10's deg

Wind Spd Definition
km/h
Visibility Definition
km
Stn Press Definition
kPa
Hmdx Definition


Wind Chill Definition


Weather Definition


TIME
00:00 1.3 -0.4 89 33 11   101.43     LegendNANA
01:00 1.3 -0.8 85 35 6   101.52     LegendNANA
02:00 0.9 -0.6 90 35 8   101.56     LegendNANA
03:00 0.5 -1.0 89 36 6   101.65     LegendNANA
04:00 0.4 -1.6 87 35 7   101.64     LegendNANA
05:00 0.5 -0.8 91 1 10   101.67     LegendNANA
06:00 0.4 -0.8 92 1 10   101.64     LegendNANA
07:00 0.8 0.2 96 3 18   101.66     LegendNANA
08:00 0.7 0.1 96 3 16   101.71     LegendNANA
09:00 0.8 0.3 96 4 23   101.66     LegendNANA
10:00 1.3 0.8 97 3 20   101.64     LegendNANA
11:00 2.4 2.4 100 4 22   101.49     LegendNANA
12:00 3.2 3.1 100 5 27   101.32     LegendNANA
13:00 5.6 4.5 93 8 41   101.12     LegendNANA
14:00 5.5 5.5 100 7 39   100.98     LegendNANA
15:00 7.2 6.8 97 9 42   100.89     LegendNANA
16:00 7.8 7.0 95 11 41   100.78     LegendNANA
17:00 7.7 7.4 98 10 44   100.69     LegendNANA
18:00 7.9 7.9 100 10 48   100.57     LegendNANA
19:00 7.6 7.6 100 9 53   100.45     LegendNANA
20:00 7.6 7.5 100 9 52   100.29     LegendNANA
21:00 8.0 8.0 100 8 54   100.09     LegendNANA
22:00 8.5 8.5 100 9 57   99.87     LegendNANA
23:00 8.4 8.4 100 9 59   99.72     LegendNANA

Notes on Data Quality.

Legend

  • E = Estimated
  • M = Missing
  • NA = Not Available
  • ‡ = Partner data that is not subject to review by the National Climate Archives
Date modified: